Weather History for Lexington, NC

Change the Weather History Date:

Sunday, January 5, 2014

  Actual Average (KINT) Record (KINT)
Temperature  
Mean Temperature 35 °F -  
Max Temperature 40 °F 49 °F 69 °F (1998)
Min Temperature 30 °F 32 °F 3 °F (1969)
Degree Days  
Heating Degree Days 30    
Moisture  
Dew Point 35 °F    
Average Humidity 100    
Maximum Humidity 100    
Minimum Humidity 87    
Precipitation  
Precipitation 0.53 in - - ()
Sea Level Pressure  
Sea Level Pressure 30.05 in    
Wind  
Wind Speed 1 mph (South)    
Max Wind Speed 4 mph    
Max Gust Speed -    
Visibility 2 miles    
Events Fog , Rain , Snow    
Averages and records for this station are not official NWS values.
T = Trace of Precipitation, MM = Missing Value Source: NWS Daily Summary

Daily Weather History Graph

Daily Weather History Graph

Search for Another Location

Airport:

Trip Planner

Search our weather history database for the weather conditions in past years. The results will help you decide how hot, cold, wet, or windy it might be!

Date:

Astronomy

Jan. 05, 2014 Rise Set
Actual Time 7:31 AM EST 5:21 PM EST
Civil Twilight 7:03 AM EST 5:50 PM EST
Nautical Twilight 6:31 AM EST 6:21 PM EST
Astronomical Twilight 6:00 AM EST 6:52 PM EST
Moon 10:22 AM EST (1/5) 10:36 PM EST (1/5)
Length of Visible Light 10h 46m
Length of Day
9h 50m
Waxing Crescent, 24% of the Moon is Illuminated
Jan 5
Waxing Crescent
Jan 7
First Quarter
Jan 15
Full
Jan 24
Last Quarter
Jan 30
New

Hourly Weather History & Observations

Time (EST) Temp. Windchill Dew Point Humidity Pressure Visibility Wind Dir Wind Speed Gust Speed Precip Events Conditions
12:15 AM 31.8 °F 28.5 °F 28.2 °F 87% 30.24 in 7.0 mi East 3.5 mph - N/A   Overcast
12:35 AM 31.1 °F - 29.8 °F 95% 30.25 in 5.0 mi Calm Calm - N/A   Overcast
12:55 AM 31.1 °F - 31.1 °F 100% 30.25 in 5.0 mi Calm Calm - N/A   Overcast
1:15 AM 31.1 °F - 31.1 °F 100% 30.24 in 5.0 mi Calm Calm - N/A   Overcast
1:35 AM 30.9 °F - 30.9 °F 100% 30.24 in 4.0 mi Calm Calm - N/A   Overcast
1:55 AM 30.9 °F - 30.9 °F 100% 30.23 in 2.5 mi Calm Calm - N/A   Overcast
2:15 AM 30.7 °F - 30.7 °F 100% 30.23 in 2.5 mi Calm Calm - N/A   Overcast
2:35 AM 30.9 °F - 30.9 °F 100% 30.23 in 1.5 mi Calm Calm - N/A   Overcast
2:55 AM 31.1 °F - 31.1 °F 100% 30.23 in 1.2 mi Calm Calm - N/A   Overcast
3:15 AM 30.9 °F - 30.9 °F 100% 30.22 in 2.0 mi Calm Calm - N/A   Overcast
3:35 AM 31.1 °F - 31.1 °F 100% 30.22 in 1.8 mi Calm Calm - N/A   Overcast
3:55 AM 31.1 °F - 31.1 °F 100% 30.22 in 2.0 mi Calm Calm - N/A   Overcast
4:15 AM 31.1 °F - 31.1 °F 100% 30.21 in 2.0 mi Calm Calm - N/A   Overcast
4:35 AM 31.1 °F 27.7 °F 31.1 °F 100% 30.20 in 2.0 mi NNE 3.5 mph - N/A   Overcast
4:55 AM 31.1 °F - 31.1 °F 100% 30.19 in 2.0 mi Calm Calm - N/A   Overcast
5:35 AM 31.5 °F - 31.5 °F 100% 30.18 in 1.8 mi Calm Calm - N/A   Light Freezing Rain
5:55 AM 31.6 °F - 31.6 °F 100% 30.18 in 1.2 mi Calm Calm - 0.01 in Rain Light Freezing Rain
6:15 AM 31.6 °F - 31.6 °F 100% 30.17 in 1.8 mi Calm Calm - N/A Rain Light Freezing Rain
6:35 AM 32.0 °F - 32.0 °F 100% 30.18 in 1.5 mi Calm Calm - N/A   Overcast
6:55 AM 32.0 °F - 32.0 °F 100% 30.19 in 1.5 mi Calm Calm - N/A Rain Light Rain
7:15 AM 31.8 °F - 31.8 °F 100% 30.19 in 2.5 mi Calm Calm - N/A   Overcast
7:35 AM 32.0 °F - 32.0 °F 100% 30.19 in 1.8 mi Calm Calm - N/A   Overcast
7:55 AM 32.0 °F - 32.0 °F 100% 30.18 in 1.8 mi Calm Calm - N/A   Overcast
8:15 AM 32.0 °F - 32.0 °F 100% 30.17 in 1.8 mi Calm Calm - N/A   Light Drizzle
8:35 AM 32.0 °F - 32.0 °F 100% 30.17 in 1.2 mi Calm Calm - 0.03 in Rain Heavy Rain
8:55 AM 32.2 °F - 32.2 °F 100% 30.17 in 0.8 mi Calm Calm - 0.09 in Snow Light Snow
9:15 AM 32.9 °F - 32.9 °F 100% 30.17 in 0.8 mi Calm Calm - 0.04 in Rain Heavy Rain
9:35 AM 33.6 °F - 33.6 °F 100% 30.16 in 1.0 mi Calm Calm - 0.07 in Rain Rain
9:55 AM 34.2 °F - 34.2 °F 100% 30.15 in 2.0 mi Calm Calm - 0.08 in   Drizzle
10:15 AM 34.9 °F - 34.9 °F 100% 30.13 in 1.8 mi Calm Calm - 0.01 in Rain Heavy Rain
10:35 AM 35.8 °F - 35.8 °F 100% 30.13 in 4.0 mi Calm Calm - 0.01 in   Overcast
10:55 AM 35.8 °F - 35.8 °F 100% 30.12 in 5.0 mi Calm Calm - 0.01 in   Overcast
11:15 AM 36.1 °F - 36.1 °F 100% 30.10 in 1.5 mi Calm Calm - 0.03 in Rain Heavy Rain
11:35 AM 36.5 °F - 36.5 °F 100% 30.08 in 1.2 mi Calm Calm - 0.08 in Rain Light Rain
11:55 AM 36.5 °F - 36.5 °F 100% 30.08 in 1.5 mi Calm Calm - 0.12 in Rain Rain
12:15 PM 37.2 °F 34.7 °F 37.2 °F 100% 30.08 in 1.8 mi West 3.5 mph - 0.03 in Rain Rain
12:35 PM 37.0 °F - 37.0 °F 100% 30.05 in 2.0 mi Calm Calm - 0.08 in Rain Rain
12:55 PM 37.8 °F - 37.8 °F 100% 30.03 in 3.0 mi Calm Calm - 0.09 in   Drizzle
1:15 PM 38.3 °F - 38.3 °F 100% 30.01 in 4.0 mi Calm Calm - 0.01 in   Heavy Drizzle
1:35 PM 38.3 °F - 38.3 °F 100% 30.00 in 1.2 mi Calm Calm - 0.08 in Rain Light Rain
1:55 PM 38.7 °F - 38.7 °F 100% 29.99 in 7.0 mi Calm Calm - 0.08 in   Drizzle
2:15 PM 38.8 °F - 38.8 °F 100% 29.99 in 2.0 mi Calm Calm - 0.03 in Rain Rain
2:35 PM 39.2 °F - 39.2 °F 100% 29.98 in 4.0 mi Calm Calm - 0.05 in   Light Drizzle
2:55 PM 39.4 °F - 39.4 °F 100% 29.97 in 5.0 mi Calm Calm - 0.05 in   Overcast
3:15 PM 39.6 °F - 39.6 °F 100% 29.96 in 7.0 mi Calm Calm - N/A   Overcast
3:35 PM 39.7 °F - 39.7 °F 100% 29.96 in 2.0 mi Calm Calm - N/A   Overcast
3:55 PM 40.1 °F - 40.1 °F 100% 29.96 in 1.0 mi Calm Calm - N/A   Overcast
4:15 PM 39.7 °F - 39.7 °F 100% 29.96 in 0.8 mi Calm Calm - N/A   Overcast
4:35 PM 39.6 °F - 39.6 °F 100% 29.96 in 0.5 mi Calm Calm - N/A Fog Fog
4:55 PM 39.2 °F - 39.2 °F 100% 29.96 in 0.5 mi Calm Calm - N/A Fog Fog
5:15 PM 39.2 °F - 39.2 °F 100% 29.95 in 0.8 mi Calm Calm - N/A   Overcast
5:35 PM 39.2 °F 37.0 °F 39.2 °F 100% 29.95 in 0.5 mi South 3.5 mph - N/A Fog Fog
5:55 PM 38.8 °F - 38.8 °F 100% 29.95 in 0.5 mi Calm Calm - N/A Fog Fog
6:15 PM 38.8 °F 36.5 °F 38.8 °F 100% 29.94 in 0.5 mi SSW 3.5 mph - N/A Fog Fog
6:35 PM 38.8 °F - 38.8 °F 100% 29.93 in 0.5 mi Calm Calm - N/A Fog Fog
6:55 PM 39.2 °F - 39.2 °F 100% 29.92 in 0.5 mi Calm Calm - N/A Fog Fog
7:15 PM 39.2 °F - 39.2 °F 100% 29.92 in 0.5 mi Calm Calm - N/A Fog Fog
7:35 PM 39.4 °F - 39.4 °F 100% 29.91 in 0.2 mi Calm Calm - N/A Fog Fog
7:55 PM 39.7 °F - 39.7 °F 100% 29.90 in 0.5 mi Calm Calm - N/A Fog Fog
8:15 PM 39.6 °F 37.4 °F 39.6 °F 100% 29.89 in 0.5 mi South 3.5 mph - N/A Fog Fog
8:35 PM 39.4 °F - 39.4 °F 100% 29.88 in 0.5 mi Calm Calm - N/A Fog Fog
8:55 PM 39.4 °F - 39.4 °F 100% 29.87 in 0.5 mi Calm Calm - N/A Fog Fog
9:15 PM 39.2 °F - 39.2 °F 100% 29.86 in 0.5 mi Calm Calm - N/A Fog Fog
9:35 PM - - - N/A% 29.86 in 0.5 mi Calm Calm - N/A Fog Fog
9:55 PM - - - N/A% 29.85 in 0.5 mi Calm Calm - N/A Fog Fog
10:15 PM - - - N/A% 29.83 in 0.5 mi Calm Calm - N/A Fog Fog
10:35 PM - - - N/A% 29.83 in 0.5 mi Calm Calm - N/A Fog Fog
10:55 PM - - - N/A% 29.81 in 1.5 mi Calm Calm - N/A   Overcast
11:15 PM - - - N/A% 29.79 in 0.8 mi Calm Calm - N/A   Overcast
11:35 PM - - - N/A% 29.79 in 0.8 mi Calm Calm - N/A   Overcast
11:55 PM - - - N/A% 29.77 in 0.8 mi Calm Calm - N/A   Drizzle